College Station, TX

6:03 PM CST on January 23, 2018 (GMT -0600)
Easterwood

Weather History for KCLL - January, 2013

Change the Weather History Date:

Tuesday, January 29, 2013

  Actual Average Record
Temperature  
Mean Temperature 69 °F 52 °F  
Max Temperature 80 °F 62 °F 83 °F (1917)
Min Temperature 57 °F 42 °F 16 °F (1949)
Degree Days  
Heating Degree Days 0 13  
Month to date heating degree days 336 418  
Since 1 July heating degree days 820 1054  
Cooling Degree Days 4 0  
Month to date cooling degree days 28 0  
Year to date cooling degree days 28 0  
Growing Degree Days 18 (Base 50)    
Moisture  
Dew Point 62 °F    
Average Humidity 82    
Maximum Humidity 97    
Minimum Humidity 67    
Precipitation  
Precipitation 0.17 in 0.10 in 2.90 in (1933)
Month to date precipitation 5.06 3.04  
Year to date precipitation 5.06 3.04  
Sea Level Pressure  
Sea Level Pressure 29.73 in    
Wind  
Wind Speed 16 mph (SSW)    
Max Wind Speed 31 mph    
Max Gust Speed 44 mph    
Visibility 10 miles    
Events Rain , Thunderstorm    
T = Trace of Precipitation, MM = Missing Value Source: NWS Daily Summary

Daily Weather History Graph

Daily Weather History Graph

Search for Another Location

Airport or City:

Trip Planner

Search our weather history database for the weather conditions in past years. The results will help you decide how hot, cold, wet, or windy it might be!

Date:

Astronomy

Jan. 29, 2013 Rise Set
Actual Time 7:18 AM CST 5:59 PM CST
Civil Twilight 6:52 AM CST 6:24 PM CST
Nautical Twilight 6:23 AM CST 6:53 PM CST
Astronomical Twilight 5:55 AM CST 7:22 PM CST
Moon 8:40 PM CST (1/29) 8:29 AM CST (1/29)
Length of Visible Light 11h 31m
Length of Day
10h 41m
Waning Gibbous, 93% of the Moon is Illuminated
Jan 29
Waning Gibbous
Feb 3
Last Quarter
Feb 10
New
Feb 17
First Quarter
Feb 25
Full

Hourly Weather History & Observations

Time (CST) Temp. Dew Point Humidity Pressure Visibility Wind Dir Wind Speed Gust Speed Precip Events Conditions
12:53 AM 70.0 °F 68.0 °F 93% 29.89 in 8.0 mi South 16.1 mph - 0.01 in Rain Light Rain
1:02 AM 69.8 °F 68.0 °F 94% 29.90 in 8.0 mi South 16.1 mph - 0.00 in Rain Light Rain
1:53 AM 71.1 °F 68.0 °F 90% 29.88 in 10.0 mi South 16.1 mph - 0.00 in   Overcast
2:53 AM 71.1 °F 68.0 °F 90% 29.86 in 8.0 mi South 15.0 mph - 0.00 in Rain Light Rain
3:53 AM 71.1 °F 68.0 °F 90% 29.85 in 9.0 mi South 8.1 mph - 0.00 in Rain Light Rain
4:53 AM 71.1 °F 68.0 °F 90% 29.83 in 10.0 mi South 12.7 mph - 0.00 in   Overcast
5:53 AM 71.6 °F 66.2 °F 83% 29.83 in 10.0 mi South 15.0 mph - N/A Rain Light Rain
6:18 AM 71.6 °F 66.2 °F 83% 29.83 in 10.0 mi South 13.8 mph - 0.00 in   Overcast
6:53 AM 71.1 °F 66.9 °F 87% 29.82 in 10.0 mi South 13.8 mph - 0.00 in   Overcast
7:53 AM 71.1 °F 66.9 °F 87% 29.81 in 10.0 mi South 15.0 mph - 0.00 in   Overcast
8:53 AM 71.1 °F 68.0 °F 90% 29.80 in 10.0 mi South 17.3 mph 24.2 mph 0.02 in   Overcast
9:53 AM 72.0 °F 68.0 °F 87% 29.77 in 10.0 mi South 19.6 mph 27.6 mph N/A   Overcast
10:53 AM 75.0 °F 66.0 °F 73% 29.73 in 10.0 mi South 24.2 mph 43.7 mph N/A   Overcast
11:05 AM 73.4 °F 66.2 °F 78% 29.74 in 10.0 mi South 26.5 mph 33.4 mph N/A   Overcast
11:14 AM 73.4 °F 66.2 °F 78% 29.73 in 10.0 mi South 28.8 mph 41.4 mph N/A   Overcast
11:38 AM 75.2 °F 66.2 °F 73% 29.72 in 10.0 mi South 26.5 mph 35.7 mph N/A   Overcast
11:53 AM 75.0 °F 66.0 °F 73% 29.69 in 10.0 mi South 21.9 mph 36.8 mph N/A   Overcast
12:53 PM 75.0 °F 66.0 °F 73% 29.65 in 10.0 mi South 17.3 mph 29.9 mph N/A   Overcast
1:00 PM 75.2 °F 66.2 °F 73% 29.66 in 10.0 mi South 23.0 mph 29.9 mph N/A   Overcast
1:53 PM 77.0 °F 66.0 °F 69% 29.61 in 10.0 mi South 17.3 mph 32.2 mph N/A   Mostly Cloudy
2:53 PM 79.0 °F 66.0 °F 64% 29.57 in 10.0 mi South 21.9 mph 36.8 mph N/A   Mostly Cloudy
3:53 PM 79.0 °F 66.0 °F 64% 29.55 in 10.0 mi South 23.0 mph 32.2 mph N/A   Overcast
4:53 PM 77.0 °F 66.9 °F 71% 29.54 in 10.0 mi South 23.0 mph 32.2 mph N/A   Mostly Cloudy
5:53 PM 75.9 °F 66.9 °F 74% 29.54 in 10.0 mi South 19.6 mph 31.1 mph N/A   Overcast
6:53 PM 75.0 °F 66.9 °F 76% 29.55 in 10.0 mi South 19.6 mph - N/A   Overcast
7:06 PM 66.2 °F 53.6 °F 64% 29.62 in 10.0 mi NW 21.9 mph 41.4 mph N/A   Overcast
7:21 PM 64.4 °F 53.6 °F 68% 29.65 in 10.0 mi NW 21.9 mph 33.4 mph N/A Thunderstorm Overcast
7:35 PM 60.8 °F 55.4 °F 82% 29.70 in 10.0 mi NW 23.0 mph 31.1 mph 0.00 in Rain Light Rain
7:53 PM 59.0 °F 55.0 °F 87% 29.68 in 6.0 mi NNW 18.4 mph 27.6 mph 0.06 in Rain , Thunderstorm Heavy Rain
8:10 PM 59.0 °F 53.6 °F 82% 29.71 in 10.0 mi NW 11.5 mph - 0.01 in Rain Light Rain
8:43 PM 57.2 °F 53.6 °F 88% 29.71 in 10.0 mi NW 5.8 mph - 0.01 in Thunderstorm Overcast
8:53 PM 57.9 °F 53.1 °F 84% 29.70 in 10.0 mi NNW 9.2 mph - 0.01 in Thunderstorm Mostly Cloudy
9:01 PM 57.2 °F 53.6 °F 88% 29.73 in 10.0 mi WSW 3.5 mph - N/A   Mostly Cloudy
9:27 PM 57.2 °F 51.8 °F 82% 29.73 in 8.0 mi NW 8.1 mph - N/A Rain , Thunderstorm Thunderstorms and Rain
9:53 PM 57.9 °F 52.0 °F 81% 29.73 in 10.0 mi NNW 3.5 mph - 0.02 in   Overcast
10:53 PM 57.9 °F 52.0 °F 81% 29.76 in 10.0 mi WNW 3.5 mph - N/A   Overcast
11:53 PM 57.9 °F 48.9 °F 72% 29.77 in 10.0 mi WNW 8.1 mph - 0.04 in   Overcast